Weather History for Boundary Cnty AP, Bonners Fer, ID

Change the Weather History Date:

Monday, February 24, 2014

  Actual Average (KSZT) Record (KSZT)
Temperature  
Mean Temperature 20 °F -  
Max Temperature 23 °F 42 °F 26 °F (2014)
Min Temperature 17 °F 26 °F 23 °F (2014)
Degree Days  
Heating Degree Days 45    
Moisture  
Dew Point 10 °F    
Average Humidity 67    
Maximum Humidity 93    
Minimum Humidity 46    
Precipitation  
Precipitation 0.00 in - - ()
Sea Level Pressure  
Sea Level Pressure 30.23 in    
Wind  
Wind Speed 0 mph (NNW)    
Max Wind Speed 7 mph    
Max Gust Speed -    
Visibility 10 miles    
Events      
Averages and records for this station are not official NWS values.
T = Trace of Precipitation, MM = Missing Value Source: NWS Daily Summary

Daily Weather History Graph

Daily Weather History Graph

Search for Another Location

Airport:

Trip Planner

Search our weather history database for the weather conditions in past years. The results will help you decide how hot, cold, wet, or windy it might be!

Date:

Astronomy

Feb. 24, 2014 Rise Set
Actual Time 6:36 AM PST 5:21 PM PST
Civil Twilight 6:04 AM PST 5:52 PM PST
Nautical Twilight 5:28 AM PST 6:29 PM PST
Astronomical Twilight 4:51 AM PST 7:05 PM PST
Moon 2:55 AM PST (2/24) 12:11 PM PST (2/24)
Length of Visible Light 11h 48m
Length of Day
10h 44m
Waning Crescent, 27% of the Moon is Illuminated
Feb 24
Waning Crescent
Mar 1
New
Mar 8
First Quarter
Mar 16
Full
Mar 23
Last Quarter

Hourly Weather History & Observations

Time (PST) Temp. Windchill Dew Point Humidity Pressure Visibility Wind Dir Wind Speed Gust Speed Precip Events Conditions
12:15 AM 19.4 °F - 17.6 °F 93% 30.11 in 10.0 mi Calm Calm - N/A   Overcast
12:35 AM 19.4 °F - 15.8 °F 86% 30.12 in 10.0 mi Calm Calm - N/A   Overcast
12:55 AM 19.4 °F - 15.8 °F 86% 30.13 in 10.0 mi Calm Calm - N/A   Overcast
1:15 AM 19.4 °F - 15.8 °F 86% 30.14 in 10.0 mi Calm Calm - N/A   Overcast
1:35 AM 19.4 °F - 14.0 °F 80% 30.14 in 10.0 mi Calm Calm - N/A   Overcast
1:55 AM 19.4 °F - 15.8 °F 86% 30.15 in 10.0 mi Calm Calm - N/A   Overcast
2:15 AM 17.6 °F - 14.0 °F 86% 30.16 in 10.0 mi Calm Calm - N/A   Overcast
2:35 AM 19.4 °F - 15.8 °F 86% 30.16 in 10.0 mi Calm Calm - N/A   Overcast
2:55 AM 19.4 °F - 15.8 °F 86% 30.17 in 10.0 mi Calm Calm - N/A   Overcast
3:15 AM 19.4 °F - 10.4 °F 68% 30.17 in 10.0 mi Calm Calm - N/A   Overcast
3:35 AM 19.4 °F - 10.4 °F 68% 30.18 in 10.0 mi Calm Calm - N/A   Overcast
3:55 AM 19.4 °F - 10.4 °F 68% 30.19 in 10.0 mi Calm Calm - N/A   Overcast
4:15 AM 19.4 °F 12.8 °F 10.4 °F 68% 30.20 in 10.0 mi NW 4.6 mph - N/A   Overcast
4:35 AM 19.4 °F - 12.2 °F 74% 30.21 in 10.0 mi Calm Calm - N/A   Overcast
4:55 AM 19.4 °F - 14.0 °F 80% 30.21 in 10.0 mi Calm Calm - N/A   Overcast
5:15 AM 19.4 °F - 14.0 °F 80% 30.22 in 10.0 mi Calm Calm - N/A   Overcast
5:35 AM 17.6 °F - 14.0 °F 86% 30.23 in 10.0 mi Calm Calm - N/A   Overcast
5:55 AM 17.6 °F - 14.0 °F 86% 30.23 in 10.0 mi Calm Calm - N/A   Overcast
6:15 AM 17.6 °F - 14.0 °F 86% 30.23 in 10.0 mi Calm Calm - N/A   Overcast
6:35 AM 19.4 °F - 12.2 °F 74% 30.24 in 10.0 mi Calm Calm - N/A   Overcast
6:55 AM 17.6 °F - 10.4 °F 73% 30.25 in 10.0 mi Calm Calm - N/A   Overcast
7:15 AM 19.4 °F - 10.4 °F 68% 30.26 in 10.0 mi Calm Calm - N/A   Overcast
7:35 AM 19.4 °F - 10.4 °F 68% 30.27 in 10.0 mi Calm Calm - N/A   Overcast
7:55 AM 19.4 °F - 8.6 °F 63% 30.28 in 10.0 mi Calm Calm - N/A   Overcast
8:15 AM 19.4 °F - 8.6 °F 63% 30.28 in 10.0 mi Calm Calm - N/A   Overcast
8:35 AM 19.4 °F - 8.6 °F 63% 30.29 in 10.0 mi Calm Calm - N/A   Overcast
8:55 AM 19.4 °F 11.5 °F 8.6 °F 63% 30.29 in 10.0 mi NNW 5.8 mph - N/A   Mostly Cloudy
9:15 AM 19.4 °F - 6.8 °F 58% 30.30 in 10.0 mi Calm Calm - N/A   Mostly Cloudy
9:35 AM 21.2 °F 12.6 °F 6.8 °F 54% 30.30 in 10.0 mi NNW 6.9 mph - N/A   Mostly Cloudy
9:55 AM 21.2 °F 16.4 °F 5.0 °F 50% 30.30 in 10.0 mi NNW 3.5 mph - N/A   Scattered Clouds
10:15 AM 21.2 °F - 6.8 °F 54% 30.30 in 10.0 mi Calm Calm - N/A   Scattered Clouds
10:35 AM 23.0 °F - 5.0 °F 46% 30.30 in 10.0 mi Calm Calm - N/A   Mostly Cloudy
10:55 AM 23.0 °F - 5.0 °F 46% 30.30 in 10.0 mi Calm Calm - N/A   Partly Cloudy
11:15 AM 23.0 °F - 5.0 °F 46% 30.30 in 10.0 mi Calm Calm - N/A   Partly Cloudy
11:35 AM 23.0 °F - 5.0 °F 46% 30.30 in 10.0 mi Calm Calm - N/A   Partly Cloudy
11:55 AM 23.0 °F - 5.0 °F 46% 30.29 in 10.0 mi Calm Calm - N/A   Partly Cloudy
12:15 PM 23.0 °F - 5.0 °F 46% 30.29 in 10.0 mi Calm Calm - N/A   Clear
12:35 PM 23.0 °F - 5.0 °F 46% 30.29 in 10.0 mi Calm Calm - N/A   Clear
12:55 PM 23.0 °F - 6.8 °F 50% 30.28 in 10.0 mi Calm Calm - N/A   Clear
1:15 PM 23.0 °F - 6.8 °F 50% 30.27 in 10.0 mi Calm Calm - N/A   Clear
1:35 PM 23.0 °F - 8.6 °F 54% 30.27 in 10.0 mi Calm Calm - N/A   Clear